DLH220 EKCH-EGLL

Flight info

Callsign DLH220
Flight time 1h 38m
Altitude 36000
Route LANGO DCT ABNED L980 LOGAN
Aircraft B38M/M-SDE/L

Departure

Time 2026-04-24 18:55
Airport Copenhagen Kastrup Airport (EKCH)

Arrival

Time 2026-04-24 20:33
Airport London Heathrow Airport (EGLL)
Time Latitude Longitude Altitude Speed Heading
2026-04-24 18:54 55.50464 12.47904 15819 ft 360 kts 271°
2026-04-24 18:55 55.50120 12.39099 16978 ft 366 kts 271°
2026-04-24 18:55 55.49942 12.34604 17574 ft 368 kts 271°
2026-04-24 18:55 55.49754 12.30075 18114 ft 372 kts 269°
2026-04-24 18:56 55.49228 12.25581 18629 ft 383 kts 258°
2026-04-24 18:56 55.48160 12.21234 19171 ft 395 kts 246°
2026-04-24 18:56 55.46606 12.17168 19685 ft 402 kts 240°
2026-04-24 18:56 55.44897 12.13158 20226 ft 406 kts 239°
2026-04-24 18:57 55.43187 12.09203 20704 ft 410 kts 238°
2026-04-24 18:57 55.41443 12.05172 21188 ft 413 kts 239°
2026-04-24 18:57 55.39705 12.01146 21646 ft 416 kts 239°
2026-04-24 18:57 55.37938 11.97045 22122 ft 419 kts 239°
2026-04-24 18:58 55.36183 11.92976 22597 ft 421 kts 239°
2026-04-24 18:58 55.34419 11.88884 23014 ft 424 kts 239°
2026-04-24 18:58 55.32624 11.84727 23431 ft 426 kts 239°
2026-04-24 18:58 55.30828 11.80577 23847 ft 429 kts 239°
2026-04-24 18:59 55.29020 11.76406 24250 ft 431 kts 238°
2026-04-24 18:59 55.27203 11.72220 24669 ft 433 kts 238°
2026-04-24 18:59 55.25401 11.67970 25075 ft 433 kts 240°
2026-04-24 18:59 55.23722 11.63580 25456 ft 434 kts 243°
2026-04-24 19:00 55.22082 11.59128 25826 ft 436 kts 243°
2026-04-24 19:00 55.20444 11.54696 26191 ft 437 kts 243°
2026-04-24 19:00 55.18789 11.50222 26538 ft 439 kts 243°
2026-04-24 19:00 55.17135 11.45761 26917 ft 440 kts 242°
2026-04-24 19:01 55.15461 11.41256 27398 ft 438 kts 242°
2026-04-24 19:01 55.13817 11.36844 27880 ft 436 kts 242°
2026-04-24 19:01 55.12171 11.32428 28341 ft 434 kts 241°
2026-04-24 19:01 55.10525 11.28007 28774 ft 433 kts 241°
2026-04-24 19:02 55.09409 11.25015 29066 ft 432 kts 241°
2026-04-24 19:02 55.07230 11.19186 29636 ft 430 kts 241°
2026-04-24 19:02 55.05609 11.14867 30041 ft 429 kts 240°
2026-04-24 19:02 55.03964 11.10495 30416 ft 429 kts 240°
2026-04-24 19:03 55.02321 11.06137 30778 ft 428 kts 240°
2026-04-24 19:03 55.00693 11.01833 31118 ft 427 kts 241°
2026-04-24 19:03 54.99077 10.97564 31462 ft 426 kts 240°
2026-04-24 19:03 54.97424 10.93207 31807 ft 425 kts 241°
2026-04-24 19:04 54.95812 10.88964 32125 ft 424 kts 241°
2026-04-24 19:04 54.94208 10.84619 32436 ft 422 kts 243°
2026-04-24 19:04 54.92724 10.80305 32745 ft 421 kts 243°
2026-04-24 19:05 54.88385 10.67767 33567 ft 419 kts 243°
2026-04-24 19:05 54.86880 10.63472 33802 ft 418 kts 243°
2026-04-24 19:05 54.85365 10.59147 34052 ft 418 kts 243°
2026-04-24 19:06 54.83849 10.54816 34286 ft 417 kts 243°
2026-04-24 19:06 54.82354 10.50539 34471 ft 418 kts 243°
2026-04-24 19:06 54.80846 10.46233 34647 ft 418 kts 243°
2026-04-24 19:06 54.79339 10.41929 34788 ft 419 kts 243°
2026-04-24 19:07 54.77824 10.37613 34910 ft 420 kts 243°
2026-04-24 19:07 54.76310 10.33302 35034 ft 421 kts 242°
2026-04-24 19:07 54.75308 10.30445 35115 ft 422 kts 242°
2026-04-24 19:07 54.73260 10.24616 35299 ft 423 kts 242°
2026-04-24 19:08 54.71730 10.20274 35445 ft 423 kts 242°
2026-04-24 19:08 54.70207 10.15960 35579 ft 423 kts 242°
2026-04-24 19:08 54.68681 10.11649 35715 ft 423 kts 242°
2026-04-24 19:08 54.67126 10.07264 35868 ft 423 kts 242°
2026-04-24 19:09 54.65589 10.02939 35980 ft 424 kts 242°
2026-04-24 19:09 54.62505 9.94287 36014 ft 424 kts 242°
2026-04-24 19:10 54.59409 9.85631 36023 ft 424 kts 242°
2026-04-24 19:10 54.56323 9.77032 36026 ft 424 kts 242°
2026-04-24 19:11 54.53222 9.68423 36040 ft 425 kts 242°
2026-04-24 19:11 54.50100 9.59787 36047 ft 424 kts 242°
2026-04-24 19:12 54.46991 9.51215 36057 ft 424 kts 242°
2026-04-24 19:12 54.43863 9.42620 36063 ft 424 kts 241°
2026-04-24 19:13 54.41259 9.35489 36066 ft 424 kts 241°
2026-04-24 19:13 54.37621 9.25539 36064 ft 424 kts 240°
2026-04-24 19:14 54.34481 9.16984 36068 ft 423 kts 240°
2026-04-24 19:14 54.31340 9.08465 36075 ft 423 kts 240°
2026-04-24 19:15 54.28191 8.99961 36079 ft 422 kts 240°
2026-04-24 19:15 54.25048 8.91499 36078 ft 421 kts 240°
2026-04-24 19:16 54.20337 8.78873 36086 ft 421 kts 240°
2026-04-24 19:16 54.17194 8.70486 36091 ft 421 kts 240°
2026-04-24 19:17 54.14035 8.62088 36091 ft 421 kts 240°
2026-04-24 19:17 54.10885 8.53737 36089 ft 420 kts 240°
2026-04-24 19:18 54.07716 8.45364 36105 ft 420 kts 240°
2026-04-24 19:18 54.04561 8.37056 36106 ft 419 kts 240°
2026-04-24 19:19 54.01386 8.28711 36115 ft 419 kts 239°
2026-04-24 19:19 53.98228 8.20433 36123 ft 419 kts 239°
2026-04-24 19:20 53.95041 8.12115 36122 ft 419 kts 239°
2026-04-24 19:21 53.88852 7.96071 36138 ft 419 kts 239°
2026-04-24 19:21 53.85562 7.87656 36137 ft 417 kts 239°
2026-04-24 19:22 53.82353 7.79439 36137 ft 418 kts 239°
2026-04-24 19:22 53.79171 7.71295 36140 ft 418 kts 239°
2026-04-24 19:23 53.75965 7.63114 36144 ft 417 kts 239°
2026-04-24 19:23 53.72774 7.54976 36142 ft 418 kts 239°
2026-04-24 19:24 53.69559 7.46819 36140 ft 416 kts 239°
2026-04-24 19:24 53.66342 7.38678 36140 ft 417 kts 239°
2026-04-24 19:25 53.63125 7.30551 36142 ft 417 kts 238°
2026-04-24 19:25 53.59925 7.22480 36148 ft 416 kts 238°
2026-04-24 19:26 53.56688 7.14355 36150 ft 416 kts 239°
2026-04-24 19:26 53.53477 7.06328 36152 ft 415 kts 239°
2026-04-24 19:27 53.50250 6.98287 36158 ft 415 kts 239°
2026-04-24 19:27 53.47015 6.90254 36158 ft 415 kts 239°
2026-04-24 19:28 53.43785 6.82255 36165 ft 414 kts 239°
2026-04-24 19:28 53.40526 6.74215 36165 ft 414 kts 239°
2026-04-24 19:29 53.35690 6.62335 36168 ft 413 kts 239°
2026-04-24 19:30 53.32429 6.54353 36170 ft 413 kts 239°
2026-04-24 19:30 53.29182 6.46432 36172 ft 412 kts 239°
2026-04-24 19:31 53.25927 6.38513 36173 ft 412 kts 239°
2026-04-24 19:31 53.22658 6.30581 36175 ft 410 kts 238°
2026-04-24 19:32 53.19425 6.22738 36172 ft 410 kts 238°
2026-04-24 19:32 53.16176 6.14896 36174 ft 410 kts 238°
2026-04-24 19:33 53.12938 6.07111 36175 ft 408 kts 238°
2026-04-24 19:33 53.09681 5.99310 36181 ft 409 kts 238°
2026-04-24 19:34 53.06443 5.91582 36181 ft 407 kts 238°
2026-04-24 19:34 53.03174 5.83799 36177 ft 408 kts 238°
2026-04-24 19:35 52.99916 5.76065 36186 ft 407 kts 238°
2026-04-24 19:35 52.96668 5.68382 36189 ft 407 kts 238°
2026-04-24 19:36 52.93409 5.60697 36196 ft 407 kts 238°
2026-04-24 19:36 52.90153 5.53037 36205 ft 409 kts 238°
2026-04-24 19:37 52.86871 5.45399 36194 ft 409 kts 238°
2026-04-24 19:37 52.83598 5.37798 36199 ft 409 kts 238°
2026-04-24 19:38 52.80304 5.30132 36195 ft 410 kts 237°
2026-04-24 19:38 52.76981 5.22400 36204 ft 410 kts 237°
2026-04-24 19:39 52.73690 5.14768 36199 ft 410 kts 237°
2026-04-24 19:39 52.70359 5.07070 36194 ft 411 kts 237°
2026-04-24 19:40 52.67052 4.99456 36212 ft 411 kts 237°
2026-04-24 19:40 52.63711 4.91788 36204 ft 411 kts 237°
2026-04-24 19:41 52.60403 4.84216 36199 ft 411 kts 237°
2026-04-24 19:41 52.57052 4.76567 36214 ft 411 kts 237°
2026-04-24 19:42 52.53735 4.69018 36211 ft 412 kts 237°
2026-04-24 19:42 52.50364 4.61372 36207 ft 412 kts 237°
2026-04-24 19:43 52.47010 4.53788 36221 ft 412 kts 237°
2026-04-24 19:43 52.43652 4.46217 36216 ft 413 kts 237°
2026-04-24 19:44 52.40277 4.38630 36213 ft 413 kts 237°
2026-04-24 19:44 52.36892 4.31033 36221 ft 413 kts 237°
2026-04-24 19:45 52.33523 4.23480 36223 ft 414 kts 237°
2026-04-24 19:45 52.30135 4.15915 36227 ft 414 kts 237°
2026-04-24 19:46 52.26741 4.08376 36224 ft 414 kts 237°
2026-04-24 19:46 52.23329 4.00816 36210 ft 414 kts 236°
2026-04-24 19:47 52.19931 3.93309 36226 ft 413 kts 237°
2026-04-24 19:47 52.16506 3.85769 36201 ft 414 kts 237°
2026-04-24 19:48 52.13095 3.78277 36225 ft 414 kts 237°
2026-04-24 19:48 52.07942 3.67007 36220 ft 415 kts 237°
2026-04-24 19:49 52.01073 3.52058 36217 ft 414 kts 237°
2026-04-24 19:50 51.94196 3.37181 36226 ft 415 kts 237°
2026-04-24 19:51 51.89134 3.25893 36220 ft 414 kts 241°
2026-04-24 19:52 51.85477 3.13379 36220 ft 410 kts 253°
2026-04-24 19:52 51.84117 3.04453 36215 ft 408 kts 262°
2026-04-24 19:53 51.83456 2.95406 36222 ft 408 kts 265°
2026-04-24 19:54 51.82569 2.81708 36219 ft 409 kts 265°
2026-04-24 19:54 51.81965 2.72593 36213 ft 409 kts 265°
2026-04-24 19:55 51.81456 2.65008 36218 ft 410 kts 265°
2026-04-24 19:55 51.80718 2.54335 36218 ft 410 kts 265°
2026-04-24 19:56 51.80077 2.45191 36107 ft 409 kts 265°
2026-04-24 19:56 51.79758 2.40663 35581 ft 412 kts 265°
2026-04-24 19:56 51.79433 2.36068 34780 ft 416 kts 265°
2026-04-24 19:56 51.79106 2.31487 33953 ft 419 kts 264°
2026-04-24 19:57 51.78770 2.26801 33108 ft 421 kts 264°
2026-04-24 19:57 51.78437 2.22187 32004 ft 419 kts 264°
2026-04-24 19:57 51.78142 2.17532 30548 ft 422 kts 265°
2026-04-24 19:57 51.77873 2.12850 28951 ft 425 kts 265°
2026-04-24 19:58 51.77287 2.02609 26270 ft 427 kts 265°
2026-04-24 19:58 51.77008 1.97892 25612 ft 422 kts 265°
2026-04-24 19:58 51.76729 1.93227 25299 ft 410 kts 265°
2026-04-24 19:59 51.76455 1.88708 25235 ft 393 kts 265°
2026-04-24 19:59 51.76194 1.84451 25218 ft 376 kts 265°
2026-04-24 19:59 51.75942 1.80338 25218 ft 359 kts 265°
2026-04-24 19:59 51.75700 1.76401 25224 ft 345 kts 265°
2026-04-24 20:00 51.75465 1.72625 25229 ft 331 kts 265°
2026-04-24 20:00 51.75238 1.68973 25223 ft 330 kts 265°
2026-04-24 20:00 51.75006 1.65282 25228 ft 330 kts 265°
2026-04-24 20:00 51.74773 1.61582 25228 ft 331 kts 265°
2026-04-24 20:01 51.74539 1.57885 24863 ft 334 kts 265°
2026-04-24 20:01 51.74308 1.54228 24400 ft 332 kts 265°
2026-04-24 20:01 51.74066 1.50431 23868 ft 344 kts 265°
2026-04-24 20:01 51.73821 1.46620 23512 ft 338 kts 265°
2026-04-24 20:02 51.73660 1.44129 23288 ft 335 kts 265°
2026-04-24 20:02 51.73341 1.39230 22724 ft 321 kts 265°
2026-04-24 20:02 51.73108 1.35673 21952 ft 318 kts 265°
2026-04-24 20:02 51.72882 1.32213 21352 ft 323 kts 264°
2026-04-24 20:03 51.72645 1.28619 20975 ft 320 kts 264°
2026-04-24 20:03 51.72411 1.25069 20568 ft 320 kts 264°
2026-04-24 20:03 51.72175 1.21514 20131 ft 319 kts 264°
2026-04-24 20:03 51.71939 1.17970 19696 ft 318 kts 264°
2026-04-24 20:04 51.71702 1.14426 19253 ft 318 kts 264°
2026-04-24 20:04 51.71467 1.10929 18812 ft 317 kts 264°
2026-04-24 20:04 51.71227 1.07374 18349 ft 317 kts 264°
2026-04-24 20:04 51.70986 1.03839 17921 ft 316 kts 264°
2026-04-24 20:05 51.70746 1.00346 17511 ft 315 kts 264°
2026-04-24 20:05 51.70508 0.96887 17097 ft 313 kts 264°
2026-04-24 20:05 51.70267 0.93398 16671 ft 312 kts 264°
2026-04-24 20:05 51.70027 0.89918 16270 ft 310 kts 264°
2026-04-24 20:06 51.69790 0.86505 15849 ft 309 kts 264°
2026-04-24 20:06 51.69550 0.83069 15426 ft 308 kts 264°
2026-04-24 20:06 51.69308 0.79611 15019 ft 306 kts 264°
2026-04-24 20:06 51.69072 0.76257 14616 ft 304 kts 264°
2026-04-24 20:07 51.68910 0.73972 14346 ft 303 kts 264°
2026-04-24 20:07 51.68593 0.69519 13820 ft 302 kts 264°
2026-04-24 20:07 51.68353 0.66144 13438 ft 300 kts 264°
2026-04-24 20:07 51.68115 0.62824 13054 ft 298 kts 264°
2026-04-24 20:08 51.67876 0.59522 12646 ft 297 kts 264°
2026-04-24 20:08 51.67636 0.56192 12250 ft 296 kts 264°
2026-04-24 20:08 51.67397 0.52895 11857 ft 295 kts 264°
2026-04-24 20:08 51.67158 0.49616 11454 ft 294 kts 264°
2026-04-24 20:09 51.66922 0.46378 11062 ft 293 kts 264°
2026-04-24 20:09 51.66682 0.43116 10678 ft 291 kts 265°
2026-04-24 20:09 51.66445 0.39885 10331 ft 288 kts 265°
2026-04-24 20:09 51.66210 0.36696 10248 ft 288 kts 265°
2026-04-24 20:10 51.65971 0.33468 10236 ft 290 kts 264°
2026-04-24 20:10 51.65733 0.30257 10210 ft 290 kts 264°
2026-04-24 20:10 51.65493 0.27020 10218 ft 290 kts 264°
2026-04-24 20:10 51.65253 0.23828 10222 ft 290 kts 264°
2026-04-24 20:11 51.65009 0.20590 10254 ft 291 kts 264°
2026-04-24 20:11 51.64714 0.17345 10216 ft 291 kts 256°
2026-04-24 20:11 51.63718 0.14529 10206 ft 292 kts 223°
2026-04-24 20:11 51.61988 0.12997 10224 ft 292 kts 193°
2026-04-24 20:12 51.59951 0.12507 10250 ft 294 kts 186°
2026-04-24 20:12 51.57937 0.12147 10248 ft 294 kts 187°
2026-04-24 20:12 51.55908 0.11672 10253 ft 294 kts 189°
2026-04-24 20:12 51.53883 0.11081 10243 ft 294 kts 191°
2026-04-24 20:13 51.51886 0.10423 10248 ft 294 kts 192°
2026-04-24 20:13 51.49899 0.09811 10238 ft 294 kts 184°
2026-04-24 20:13 51.47910 0.10366 10231 ft 292 kts 152°
2026-04-24 20:13 51.46386 0.12483 10250 ft 289 kts 125°
2026-04-24 20:14 51.45304 0.15229 10248 ft 291 kts 120°
2026-04-24 20:14 51.44318 0.18031 10239 ft 291 kts 111°
2026-04-24 20:14 51.43997 0.21195 10251 ft 288 kts 85°
2026-04-24 20:14 51.44604 0.24189 10226 ft 284 kts 53°
2026-04-24 20:15 51.46123 0.26164 10238 ft 283 kts 20°
2026-04-24 20:15 51.49414 0.25536 10237 ft 284 kts 323°
2026-04-24 20:15 51.50593 0.23104 10229 ft 279 kts 290°
2026-04-24 20:16 51.50751 0.20117 10228 ft 263 kts 259°
2026-04-24 20:16 51.50388 0.17235 10240 ft 264 kts 265°
2026-04-24 20:16 51.50428 0.14265 10242 ft 263 kts 279°
2026-04-24 20:16 51.50791 0.11421 10241 ft 262 kts 285°
2026-04-24 20:17 51.51254 0.08592 10231 ft 263 kts 279°
2026-04-24 20:17 51.50022 0.03349 10239 ft 264 kts 220°
2026-04-24 20:17 51.48429 0.01935 10250 ft 265 kts 199°
2026-04-24 20:18 51.47250 0.01256 10248 ft 266 kts 205°
2026-04-24 20:18 51.45448 -0.01313 10237 ft 264 kts 243°
2026-04-24 20:18 51.44978 -0.04128 10240 ft 261 kts 272°
2026-04-24 20:18 51.45387 -0.06928 10253 ft 261 kts 295°
2026-04-24 20:19 51.46211 -0.09483 10247 ft 262 kts 300°
2026-04-24 20:19 51.47139 -0.12050 10245 ft 263 kts 301°
2026-04-24 20:19 51.48067 -0.14560 10239 ft 263 kts 301°
2026-04-24 20:19 51.48998 -0.17063 10244 ft 266 kts 301°
2026-04-24 20:20 51.49951 -0.19626 10237 ft 266 kts 301°
2026-04-24 20:20 51.50894 -0.22175 10071 ft 262 kts 301°
2026-04-24 20:20 51.51813 -0.24668 9678 ft 263 kts 301°
2026-04-24 20:20 51.52742 -0.27203 9294 ft 263 kts 301°
2026-04-24 20:21 51.53661 -0.29716 8949 ft 262 kts 301°
2026-04-24 20:21 51.54583 -0.32252 8605 ft 260 kts 301°
2026-04-24 20:21 51.55484 -0.34730 8300 ft 257 kts 301°
2026-04-24 20:21 51.56381 -0.37207 8195 ft 257 kts 301°
2026-04-24 20:22 51.57278 -0.39687 7914 ft 256 kts 301°
2026-04-24 20:22 51.58172 -0.42154 7513 ft 257 kts 301°
2026-04-24 20:22 51.59065 -0.44614 7261 ft 254 kts 301°
2026-04-24 20:22 51.59967 -0.47091 7245 ft 257 kts 301°
2026-04-24 20:23 51.60737 -0.49604 7217 ft 248 kts 284°
2026-04-24 20:23 51.60828 -0.52370 7235 ft 247 kts 265°
2026-04-24 20:23 51.60620 -0.55113 7238 ft 248 kts 262°
2026-04-24 20:23 51.60354 -0.57872 7234 ft 248 kts 261°
2026-04-24 20:24 51.60079 -0.60615 7234 ft 249 kts 261°
2026-04-24 20:24 51.59801 -0.63346 7233 ft 249 kts 261°
2026-04-24 20:24 51.59522 -0.66076 7197 ft 246 kts 261°
2026-04-24 20:24 51.59247 -0.68778 6898 ft 246 kts 261°
2026-04-24 20:25 51.58972 -0.71514 6533 ft 247 kts 260°
2026-04-24 20:25 51.58705 -0.74232 6220 ft 246 kts 261°
2026-04-24 20:25 51.58441 -0.76951 5884 ft 245 kts 261°
2026-04-24 20:25 51.58187 -0.79607 5584 ft 244 kts 261°
2026-04-24 20:26 51.57930 -0.82295 5264 ft 243 kts 261°
2026-04-24 20:26 51.57662 -0.84971 5051 ft 238 kts 256°
2026-04-24 20:26 51.56965 -0.87317 4718 ft 233 kts 225°
2026-04-24 20:26 51.55623 -0.88666 4520 ft 222 kts 192°
2026-04-24 20:27 51.54152 -0.89050 4405 ft 211 kts 183°
2026-04-24 20:27 51.52697 -0.89225 4239 ft 203 kts 181°
2026-04-24 20:27 51.51316 -0.89359 4072 ft 195 kts 179°
2026-04-24 20:27 51.50035 -0.89034 3841 ft 185 kts 146°
2026-04-24 20:28 51.49145 -0.87638 3593 ft 176 kts 121°
2026-04-24 20:28 51.48518 -0.85937 3257 ft 178 kts 114°
2026-04-24 20:28 51.48071 -0.84108 2999 ft 175 kts 107°
2026-04-24 20:28 51.47774 -0.82195 2978 ft 177 kts 98°
2026-04-24 20:29 51.47644 -0.80203 2964 ft 178 kts 91°
2026-04-24 20:29 51.47653 -0.78219 2961 ft 177 kts 88°
2026-04-24 20:29 51.47691 -0.76260 2965 ft 178 kts 89°
2026-04-24 20:29 51.47717 -0.74269 2983 ft 178 kts 89°
2026-04-24 20:30 51.47729 -0.72263 2917 ft 178 kts 90°
2026-04-24 20:30 51.47732 -0.70291 2709 ft 177 kts 90°
2026-04-24 20:30 51.47731 -0.68325 2470 ft 175 kts 90°
2026-04-24 20:30 51.47729 -0.66376 2237 ft 174 kts 90°
2026-04-24 20:31 51.47728 -0.64464 2009 ft 173 kts 90°
2026-04-24 20:31 51.47728 -0.62542 1799 ft 170 kts 89°
2026-04-24 20:31 51.47729 -0.60629 1657 ft 171 kts 89°
2026-04-24 20:31 51.47731 -0.58736 1402 ft 171 kts 89°
2026-04-24 20:32 51.47734 -0.56842 1156 ft 171 kts 89°
2026-04-24 20:32 51.47738 -0.54927 914 ft 171 kts 89°
2026-04-24 20:32 51.47742 -0.53043 680 ft 171 kts 89°
2026-04-24 20:32 51.47746 -0.51140 451 ft 171 kts 89°
2026-04-24 20:33 51.47751 -0.49245 266 ft 170 kts 89°
2026-04-24 20:33 51.47755 -0.47432 101 ft 153 kts 88°
2026-04-24 20:33 51.47757 -0.45911 81 ft 102 kts 89°
2026-04-24 20:33 51.47760 -0.45246 88 ft 16 kts 99°
2026-04-24 20:34 51.47683 -0.45187 89 ft 12 kts 163°
2026-04-24 20:34 51.47628 -0.45175 90 ft 4 kts 178°
2026-04-24 20:34 51.47611 -0.45175 90 ft 0 kts 180°
2026-04-24 20:36 51.47601 -0.45175 90 ft 2 kts 179°
2026-04-24 20:37 51.47574 -0.45175 90 ft 5 kts 179°
2026-04-24 20:37 51.47533 -0.45168 90 ft 6 kts 158°
2026-04-24 20:37 51.47511 -0.45107 91 ft 6 kts 99°
2026-04-24 20:37 51.47509 -0.45039 92 ft 6 kts 89°
2026-04-24 20:38 51.47510 -0.44969 93 ft 7 kts 90°
2026-04-24 20:38 51.47509 -0.44884 93 ft 7 kts 90°
2026-04-24 20:38 51.47509 -0.44787 92 ft 10 kts 89°
2026-04-24 20:38 51.47510 -0.44688 90 ft 7 kts 89°
2026-04-24 20:39 51.47505 -0.44594 90 ft 9 kts 94°
2026-04-24 20:39 51.47503 -0.44480 90 ft 11 kts 90°
2026-04-24 20:39 51.47504 -0.44346 90 ft 12 kts 89°
2026-04-24 20:39 51.47505 -0.44188 87 ft 16 kts 89°
2026-04-24 20:40 51.47470 -0.44070 84 ft 14 kts 156°
2026-04-24 20:40 51.47368 -0.44060 82 ft 9 kts 180°
2026-04-24 20:40 51.47337 -0.44061 82 ft 3 kts 179°
2026-04-24 20:40 51.47329 -0.44061 82 ft 0 kts 180°
2026-04-24 20:41 51.47322 -0.44060 83 ft 1 kts 180°
2026-04-24 20:41 51.47310 -0.44060 83 ft 2 kts 180°
2026-04-24 20:41 51.47290 -0.44060 83 ft 5 kts 180°
2026-04-24 20:41 51.47185 -0.44060 85 ft 20 kts 179°
2026-04-24 20:42 51.47041 -0.44057 86 ft 20 kts 179°
2026-04-24 20:42 51.46896 -0.44056 85 ft 21 kts 179°
2026-04-24 20:42 51.46766 -0.44074 86 ft 15 kts 224°
2026-04-24 20:42 51.46753 -0.44237 88 ft 15 kts 269°
2026-04-24 20:43 51.46752 -0.44414 90 ft 15 kts 268°
2026-04-24 20:43 51.46791 -0.44551 91 ft 14 kts 346°
2026-04-24 20:43 51.46890 -0.44557 94 ft 14 kts 359°
2026-04-24 20:43 51.46962 -0.44557 96 ft 9 kts
2026-04-24 20:44 51.47013 -0.44555 97 ft 4 kts
2026-04-24 20:44 51.47037 -0.44567 96 ft 4 kts 293°
2026-04-24 20:44 51.47036 -0.44629 96 ft 6 kts 266°
2026-04-24 20:44 51.47036 -0.44673 96 ft 0 kts 270°
2026-04-24 20:45 51.47036 -0.44674 96 ft 0 kts 270°